| time (UTC) | temp C | wind direction | speed KPH | gust KPH | rain 1hr cm | rain 24hr cm | rain mn cm | humidity % | barometer mb |
| 20260507221651 | 18 | 351 | 20.9 | 33.8 | 0.00 | 0.00 | 0.00 | 22 | 1015.5 |
| 20260507221152 | 18 | 311 | 11.3 | 32.2 | 0.00 | 0.00 | 0.00 | 22 | 1015.5 |
| 20260507220651 | 18 | 330 | 16.1 | 40.2 | 0.00 | 0.00 | 0.00 | 21 | 1015.4 |
| 20260507215652 | 17 | 305 | 11.3 | 38.6 | 0.00 | 0.00 | 0.00 | 25 | 1015.6 |
| 20260507215152 | 17 | 338 | 9.7 | 25.7 | 0.00 | 0.00 | 0.00 | 26 | 1015.7 |
| 20260507214652 | 17 | 323 | 8.0 | 24.1 | 0.00 | 0.00 | 0.00 | 25 | 1015.9 |
| 20260507213652 | 17 | 337 | 8.0 | 16.1 | 0.00 | 0.00 | 0.00 | 26 | 1015.9 |
| 20260507213152 | 17 | 325 | 9.7 | 19.3 | 0.00 | 0.03 | 0.00 | 26 | 1016.0 |
| 20260507212652 | 17 | 344 | 9.7 | 19.3 | 0.00 | 0.03 | 0.00 | 27 | 1016.0 |
| 20260507212153 | 17 | 337 | 0.0 | 16.1 | 0.00 | 0.03 | 0.00 | 27 | 1016.1 |
| 20260507211652 | 17 | 326 | 11.3 | 19.3 | 0.00 | 0.03 | 0.00 | 26 | 1016.3 |
| 20260507211152 | 17 | 341 | 11.3 | 24.1 | 0.00 | 0.03 | 0.00 | 25 | 1016.3 |
| 20260507210152 | 17 | 337 | 0.0 | 14.5 | 0.00 | 0.03 | 0.00 | 27 | 1016.6 |
| 20260507205652 | 16 | 297 | 1.6 | 25.7 | 0.00 | 0.03 | 0.00 | 27 | 1016.8 |
| 20260507205152 | 17 | 314 | 8.0 | 19.3 | 0.00 | 0.03 | 0.00 | 26 | 1016.8 |
| 20260507204652 | 17 | 308 | 3.2 | 25.7 | 0.00 | 0.03 | 0.00 | 27 | 1016.8 |
| 20260507204152 | 17 | 338 | 3.2 | 25.7 | 0.00 | 0.03 | 0.00 | 28 | 1016.8 |
| 20260507203652 | 16 | 342 | 3.2 | 19.3 | 0.00 | 0.03 | 0.00 | 27 | 1016.9 |
| 20260507203152 | 16 | 297 | 14.5 | 29.0 | 0.00 | 0.03 | 0.00 | 26 | 1016.9 |
| 20260507202652 | 16 | 345 | 14.5 | 22.5 | 0.00 | 0.03 | 0.00 | 27 | 1017.0 |
| 20260507202152 | 16 | 316 | 11.3 | 24.1 | 0.00 | 0.03 | 0.00 | 27 | 1017.2 |
| 20260507201152 | 16 | 279 | 9.7 | 27.4 | 0.00 | 0.03 | 0.00 | 28 | 1017.2 |
| 20260507200652 | 16 | 303 | 17.7 | 32.2 | 0.00 | 0.03 | 0.00 | 27 | 1017.3 |
| 20260507200153 | 16 | 343 | 12.9 | 29.0 | 0.00 | 0.03 | 0.00 | 28 | 1017.3 |
| 20260507195652 | 16 | 307 | 12.9 | 27.4 | 0.00 | 0.03 | 0.00 | 26 | 1017.5 |
| 20260507195152 | 16 | 293 | 14.5 | 32.2 | 0.00 | 0.03 | 0.00 | 26 | 1017.5 |
| 20260507194652 | 16 | 288 | 9.7 | 32.2 | 0.00 | 0.03 | 0.00 | 26 | 1017.5 |
| 20260507193152 | 16 | 29 | 3.2 | 16.1 | 0.00 | 0.03 | 0.00 | 26 | 1017.6 |
| 20260507192652 | 16 | 309 | 8.0 | 16.1 | 0.00 | 0.03 | 0.00 | 26 | 1017.7 |
| 20260507192152 | 16 | 339 | 1.6 | 19.3 | 0.00 | 0.03 | 0.00 | 25 | 1017.6 |
| 20260507191153 | 16 | 305 | 1.6 | 4.8 | 0.00 | 0.03 | 0.00 | 24 | 1017.7 |
| 20260507190152 | 17 | 337 | 0.0 | 4.8 | 0.00 | 0.03 | 0.00 | 23 | 1017.8 |
| 20260507185652 | 16 | 303 | 1.6 | 4.8 | 0.00 | 0.03 | 0.00 | 25 | 1017.9 |
| 20260507185152 | 16 | 26 | 0.0 | 3.2 | 0.00 | 0.03 | 0.00 | 23 | 1017.9 |
| 20260507184652 | 16 | 346 | 1.6 | 4.8 | 0.00 | 0.03 | 0.00 | 24 | 1017.9 |
| 20260507184153 | 16 | 2 | 0.0 | 1.6 | 0.00 | 0.03 | 0.00 | 23 | 1017.9 |
| 20260507183653 | 16 | 147 | 0.0 | 3.2 | 0.00 | 0.03 | 0.00 | 24 | 1018.0 |
| 20260507182652 | 16 | 19 | 0.0 | 1.6 | 0.00 | 0.03 | 0.00 | 22 | 1018.0 |
| 20260507182153 | 16 | 122 | 0.0 | 1.6 | 0.00 | 0.03 | 0.00 | 23 | 1017.9 |
| 20260507181652 | 15 | 288 | 0.0 | 1.6 | 0.00 | 0.03 | 0.00 | 23 | 1017.9 |
| 20260507180652 | 15 | 53 | 0.0 | 1.6 | 0.00 | 0.03 | 0.00 | 24 | 1018.2 |
| 20260507180152 | 15 | 346 | 0.0 | 3.2 | 0.00 | 0.03 | 0.00 | 22 | 1018.3 |
| 20260507175652 | 15 | 322 | 1.6 | 9.7 | 0.00 | 0.03 | 0.00 | 23 | 1018.3 |
| 20260507175152 | 15 | 240 | 1.6 | 4.8 | 0.00 | 0.03 | 0.00 | 22 | 1018.4 |
| 20260507174653 | 15 | 213 | 3.2 | 8.0 | 0.00 | 0.03 | 0.00 | 22 | 1018.4 |
| 20260507174152 | 15 | 265 | 1.6 | 8.0 | 0.00 | 0.03 | 0.00 | 23 | 1018.5 |
| 20260507173652 | 15 | 287 | 1.6 | 4.8 | 0.00 | 0.03 | 0.00 | 22 | 1018.6 |
| 20260507173152 | 15 | 209 | 3.2 | 8.0 | 0.00 | 0.03 | 0.00 | 23 | 1018.6 |
| 20260507172653 | 15 | 276 | 4.8 | 12.9 | 0.00 | 0.03 | 0.00 | 23 | 1018.8 |
| 20260507172153 | 15 | 233 | 3.2 | 11.3 | 0.00 | 0.03 | 0.00 | 21 | 1018.7 |
| 20260507171652 | 15 | 288 | 8.0 | 12.9 | 0.00 | 0.03 | 0.00 | 21 | 1018.8 |
| 20260507171153 | 14 | 272 | 1.6 | 9.7 | 0.00 | 0.03 | 0.00 | 23 | 1018.8 |
| 20260507170653 | 14 | 266 | 6.4 | 11.3 | 0.00 | 0.03 | 0.00 | 22 | 1018.8 |
| 20260507170153 | 14 | 274 | 6.4 | 12.9 | 0.00 | 0.03 | 0.00 | 24 | 1018.9 |
| 20260507165652 | 14 | 317 | 3.2 | 12.9 | 0.00 | 0.03 | 0.00 | 23 | 1019.0 |
| 20260507165152 | 13 | 319 | 4.8 | 19.3 | 0.00 | 0.03 | 0.00 | 23 | 1019.0 |
| 20260507164652 | 13 | 297 | 8.0 | 14.5 | 0.00 | 0.03 | 0.00 | 22 | 1019.0 |
| 20260507164153 | 13 | 265 | 1.6 | 11.3 | 0.00 | 0.03 | 0.00 | 24 | 1019.0 |
| 20260507163152 | 13 | 350 | 6.4 | 11.3 | 0.00 | 0.03 | 0.00 | 24 | 1019.0 |
| 20260507162652 | 13 | 302 | 4.8 | 12.9 | 0.00 | 0.03 | 0.00 | 25 | 1019.0 |
| 20260507162152 | 13 | 291 | 8.0 | 19.3 | 0.00 | 0.03 | 0.00 | 25 | 1019.0 |
| 20260507161653 | 12 | 302 | 8.0 | 19.3 | 0.00 | 0.03 | 0.00 | 25 | 1019.0 |
| 20260507160652 | 12 | 334 | 8.0 | 16.1 | 0.00 | 0.03 | 0.00 | 27 | 1019.2 |
| 20260507160152 | 12 | 302 | 6.4 | 16.1 | 0.00 | 0.03 | 0.00 | 28 | 1019.2 |
| 20260507155652 | 12 | 299 | 8.0 | 16.1 | 0.00 | 0.03 | 0.00 | 31 | 1019.2 |
| 20260507155153 | 12 | 316 | 11.3 | 19.3 | 0.00 | 0.03 | 0.00 | 30 | 1019.3 |
| 20260507154653 | 12 | 319 | 9.7 | 24.1 | 0.00 | 0.03 | 0.00 | 31 | 1019.3 |
| 20260507154153 | 12 | 304 | 9.7 | 19.3 | 0.00 | 0.03 | 0.00 | 31 | 1019.2 |
| 20260507153653 | 11 | 306 | 12.9 | 19.3 | 0.00 | 0.03 | 0.00 | 31 | 1019.2 |
| 20260507153153 | 11 | 315 | 9.7 | 19.3 | 0.00 | 0.03 | 0.00 | 33 | 1019.3 |
| 20260507152653 | 11 | 306 | 14.5 | 24.1 | 0.00 | 0.03 | 0.00 | 33 | 1019.3 |
| 20260507152153 | 11 | 333 | 9.7 | 19.3 | 0.00 | 0.03 | 0.00 | 34 | 1019.3 |
| 20260507151653 | 11 | 310 | 9.7 | 19.3 | 0.00 | 0.03 | 0.00 | 34 | 1019.3 |
| 20260507150652 | 10 | 322 | 8.0 | 19.3 | 0.00 | 0.03 | 0.00 | 36 | 1019.3 |
| 20260507150153 | 10 | 302 | 9.7 | 19.3 | 0.00 | 0.03 | 0.00 | 37 | 1019.3 |
| 20260507145153 | 10 | 300 | 11.3 | 19.3 | 0.00 | 0.03 | 0.00 | 37 | 1019.3 |
| 20260507144653 | 9 | 316 | 8.0 | 19.3 | 0.00 | 0.03 | 0.00 | 38 | 1019.3 |
| 20260507144153 | 9 | 324 | 9.7 | 20.9 | 0.00 | 0.03 | 0.00 | 39 | 1019.3 |
| 20260507143653 | 9 | 299 | 12.9 | 25.7 | 0.00 | 0.03 | 0.00 | 38 | 1019.4 |
| 20260507143152 | 8 | 300 | 14.5 | 29.0 | 0.00 | 0.03 | 0.00 | 39 | 1019.3 |
| 20260507141653 | 8 | 329 | 9.7 | 16.1 | 0.00 | 0.03 | 0.00 | 39 | 1019.3 |
| 20260507141153 | 8 | 291 | 8.0 | 19.3 | 0.00 | 0.03 | 0.00 | 39 | 1019.3 |
| 20260507140653 | 7 | 336 | 8.0 | 12.9 | 0.00 | 0.03 | 0.00 | 40 | 1019.3 |
| 20260507140153 | 7 | 318 | 8.0 | 14.5 | 0.00 | 0.03 | 0.00 | 40 | 1019.3 |
| 20260507135653 | 7 | 324 | 6.4 | 14.5 | 0.00 | 0.03 | 0.00 | 41 | 1019.3 |
| 20260507134653 | 6 | 298 | 6.4 | 12.9 | 0.00 | 0.03 | 0.00 | 42 | 1019.3 |
| 20260507134153 | 6 | 311 | 4.8 | 14.5 | 0.00 | 0.03 | 0.00 | 43 | 1019.2 |
| 20260507133153 | 6 | 317 | 6.4 | 14.5 | 0.00 | 0.03 | 0.00 | 44 | 1019.1 |
| 20260507132653 | 5 | 301 | 4.8 | 9.7 | 0.00 | 0.03 | 0.00 | 45 | 1019.1 |
| 20260507132153 | 5 | 303 | 6.4 | 16.1 | 0.00 | 0.03 | 0.00 | 45 | 1019.0 |
| 20260507131653 | 5 | 310 | 8.0 | 14.5 | 0.00 | 0.03 | 0.00 | 45 | 1019.0 |
| 20260507131153 | 5 | 326 | 4.8 | 9.7 | 0.00 | 0.03 | 0.00 | 46 | 1018.9 |
| 20260507130652 | 5 | 319 | 4.8 | 12.9 | 0.00 | 0.03 | 0.00 | 46 | 1018.9 |
| 20260507130152 | 5 | 309 | 4.8 | 9.7 | 0.00 | 0.03 | 0.00 | 46 | 1019.0 |
| 20260507125153 | 4 | 321 | 4.8 | 9.7 | 0.00 | 0.03 | 0.00 | 47 | 1018.9 |
| 20260507124653 | 3 | 302 | 6.4 | 11.3 | 0.00 | 0.03 | 0.00 | 48 | 1018.8 |
| 20260507123653 | 3 | 305 | 1.6 | 8.0 | 0.00 | 0.03 | 0.00 | 53 | 1018.8 |
| 20260507123153 | 1 | 0 | 0.0 | 0.0 | 0.00 | 0.03 | 0.00 | 55 | 1018.7 |
| 20260507122653 | 1 | 0 | 0.0 | 0.0 | 0.00 | 0.03 | 0.00 | 55 | 1018.7 |
| 20260507122153 | 1 | 0 | 0.0 | 0.0 | 0.00 | 0.03 | 0.00 | 55 | 1018.7 |
| 20260507121153 | 1 | 0 | 0.0 | 0.0 | 0.00 | 0.03 | 0.00 | 55 | 1018.7 |
| 20260507120653 | 1 | 0 | 0.0 | 0.0 | 0.00 | 0.03 | 0.00 | 55 | 1018.7 |
| 20260507120153 | 1 | 0 | 0.0 | 0.0 | 0.00 | 0.03 | 0.00 | 55 | 1018.6 |
| 20260507115653 | 1 | 0 | 0.0 | 0.0 | 0.00 | 0.03 | 0.00 | 55 | 1018.6 |
| 20260507115153 | 1 | 0 | 0.0 | 0.0 | 0.00 | 0.03 | 0.00 | 55 | 1018.6 |
| 20260507114653 | 1 | 0 | 0.0 | 0.0 | 0.00 | 0.03 | 0.00 | 55 | 1018.7 |
| 20260507114153 | 1 | 0 | 0.0 | 0.0 | 0.00 | 0.03 | 0.00 | 55 | 1018.7 |
| 20260507113653 | 1 | 0 | 0.0 | 0.0 | 0.00 | 0.03 | 0.00 | 55 | 1018.7 |
| 20260507113153 | 1 | 0 | 0.0 | 0.0 | 0.00 | 0.03 | 0.00 | 55 | 1018.8 |
| 20260507112652 | 1 | 0 | 0.0 | 0.0 | 0.00 | 0.03 | 0.00 | 55 | 1018.7 |
| 20260507112153 | 1 | 0 | 0.0 | 0.0 | 0.00 | 0.03 | 0.00 | 55 | 1018.8 |
| 20260507111652 | 1 | 0 | 0.0 | 0.0 | 0.00 | 0.03 | 0.00 | 55 | 1018.8 |
| 20260507111153 | 1 | 0 | 0.0 | 0.0 | 0.00 | 0.03 | 0.00 | 55 | 1018.7 |
| 20260507110153 | 1 | 0 | 0.0 | 0.0 | 0.00 | 0.03 | 0.00 | 55 | 1018.8 |
| 20260507105653 | 1 | 0 | 0.0 | 0.0 | 0.00 | 0.03 | 0.00 | 55 | 1018.8 |
| 20260507105153 | 1 | 0 | 0.0 | 0.0 | 0.00 | 0.03 | 0.00 | 55 | 1018.9 |
| 20260507104653 | 1 | 0 | 0.0 | 0.0 | 0.00 | 0.03 | 0.00 | 55 | 1018.8 |
| 20260507103653 | 1 | 0 | 0.0 | 0.0 | 0.00 | 0.03 | 0.00 | 55 | 1018.7 |
| 20260507103153 | 1 | 0 | 0.0 | 0.0 | 0.00 | 0.03 | 0.00 | 55 | 1018.7 |
| 20260507102653 | 1 | 0 | 0.0 | 0.0 | 0.00 | 0.03 | 0.00 | 55 | 1018.8 |
| 20260507101653 | 1 | 0 | 0.0 | 0.0 | 0.00 | 0.03 | 0.00 | 55 | 1019.0 |
| 20260507101153 | 1 | 1 | 0.0 | 3.2 | 0.00 | 0.03 | 0.00 | 55 | 1019.0 |
| 20260507100654 | 1 | 300 | 3.2 | 3.2 | 0.00 | 0.03 | 0.00 | 55 | 1019.0 |
| 20260507100154 | 1 | 300 | 3.2 | 8.0 | 0.00 | 0.03 | 0.00 | 55 | 1019.1 |
| 20260507095653 | 1 | 302 | 4.8 | 9.7 | 0.00 | 0.03 | 0.00 | 55 | 1019.1 |
| 20260507094654 | 1 | 299 | 3.2 | 9.7 | 0.00 | 0.03 | 0.00 | 58 | 1019.0 |
| 20260507094154 | 1 | 305 | 4.8 | 9.7 | 0.00 | 0.03 | 0.00 | 59 | 1019.0 |
| 20260507093653 | 1 | 299 | 4.8 | 11.3 | 0.00 | 0.03 | 0.00 | 60 | 1019.1 |
| 20260507093154 | 0 | 324 | 1.6 | 3.2 | 0.00 | 0.03 | 0.00 | 61 | 1019.0 |
| 20260507092653 | 0 | 314 | 0.0 | 1.6 | 0.00 | 0.03 | 0.00 | 62 | 1019.0 |
| 20260507092154 | 0 | 348 | 0.0 | 3.2 | 0.00 | 0.03 | 0.00 | 62 | 1019.0 |
| 20260507091653 | 0 | 336 | 1.6 | 4.8 | 0.00 | 0.03 | 0.00 | 63 | 1019.0 |
| 20260507091154 | 0 | 341 | 1.6 | 9.7 | 0.00 | 0.03 | 0.00 | 64 | 1019.0 |
| 20260507090653 | 0 | 340 | 1.6 | 8.0 | 0.00 | 0.03 | 0.00 | 65 | 1019.1 |
| 20260507090154 | 0 | 341 | 0.0 | 4.8 | 0.00 | 0.03 | 0.00 | 66 | 1019.3 |
| 20260507085653 | 0 | 342 | 1.6 | 4.8 | 0.00 | 0.03 | 0.00 | 68 | 1019.2 |
| 20260507085153 | 0 | 332 | 0.0 | 4.8 | 0.00 | 0.03 | 0.00 | 71 | 1019.3 |
| 20260507084653 | 0 | 346 | 1.6 | 8.0 | 0.00 | 0.03 | 0.00 | 72 | 1019.2 |
| 20260507084153 | 0 | 336 | 0.0 | 4.8 | 0.00 | 0.03 | 0.00 | 73 | 1019.2 |
| 20260507083653 | 0 | 334 | 0.0 | 1.6 | 0.00 | 0.03 | 0.00 | 75 | 1019.2 |
| 20260507083154 | 0 | 333 | 0.0 | 3.2 | 0.00 | 0.03 | 0.00 | 75 | 1019.2 |
| 20260507082654 | 0 | 304 | 1.6 | 8.0 | 0.00 | 0.03 | 0.00 | 78 | 1019.4 |
| 20260507082154 | -1 | 300 | 1.6 | 4.8 | 0.00 | 0.03 | 0.00 | 83 | 1019.4 |
| 20260507081653 | -1 | 299 | 0.0 | 4.8 | 0.00 | 0.03 | 0.00 | 90 | 1019.6 |
| 20260507081154 | -2 | 310 | 0.0 | 1.6 | 0.00 | 0.03 | 0.00 | 93 | 1019.5 |
| 20260507080654 | -3 | 26 | 0.0 | 0.0 | 0.00 | 0.03 | 0.00 | 93 | 1019.6 |
| 20260507080153 | -3 | 26 | 0.0 | 0.0 | 0.00 | 0.03 | 0.00 | 93 | 1019.7 |
| 20260507075653 | -2 | 26 | 0.0 | 0.0 | 0.00 | 0.03 | 0.00 | 93 | 1019.7 |
| 20260507075153 | -2 | 25 | 0.0 | 0.0 | 0.00 | 0.03 | 0.00 | 93 | 1019.8 |
| 20260507074653 | -2 | 25 | 0.0 | 0.0 | 0.00 | 0.03 | 0.00 | 93 | 1019.9 |
| 20260507074154 | -2 | 25 | 0.0 | 0.0 | 0.00 | 0.03 | 0.00 | 93 | 1019.9 |
| 20260507073653 | -2 | 26 | 0.0 | 0.0 | 0.00 | 0.03 | 0.00 | 93 | 1020.0 |
| 20260507072654 | -2 | 25 | 0.0 | 0.0 | 0.00 | 0.03 | 0.00 | 93 | 1020.0 |
| 20260507072153 | -2 | 25 | 0.0 | 0.0 | 0.00 | 0.03 | 0.00 | 93 | 1020.1 |
| 20260507071654 | -2 | 25 | 0.0 | 0.0 | 0.00 | 0.03 | 0.00 | 93 | 1020.1 |
| 20260507071154 | -2 | 25 | 0.0 | 0.0 | 0.00 | 0.03 | 0.00 | 93 | 1020.1 |
| 20260507070654 | -2 | 25 | 0.0 | 0.0 | 0.00 | 0.03 | 0.00 | 93 | 1020.1 |
| 20260507070153 | -2 | 25 | 0.0 | 0.0 | 0.00 | 0.03 | 0.00 | 93 | 1020.2 |
| 20260507065654 | -2 | 26 | 0.0 | 0.0 | 0.00 | 0.03 | 0.00 | 93 | 1020.2 |
| 20260507065153 | -2 | 26 | 0.0 | 0.0 | 0.00 | 0.03 | 0.00 | 94 | 1020.1 |
| 20260507064654 | -2 | 25 | 0.0 | 0.0 | 0.00 | 0.03 | 0.00 | 94 | 1020.2 |
| 20260507064153 | -2 | 26 | 0.0 | 0.0 | 0.00 | 0.03 | 0.00 | 94 | 1020.3 |
| 20260507063654 | -2 | 25 | 0.0 | 0.0 | 0.00 | 0.03 | 0.00 | 93 | 1020.3 |
| 20260507063153 | -2 | 26 | 0.0 | 0.0 | 0.00 | 0.03 | 0.00 | 94 | 1020.3 |
| 20260507062653 | -2 | 25 | 0.0 | 0.0 | 0.00 | 0.03 | 0.00 | 94 | 1020.2 |
| 20260507062153 | -2 | 25 | 0.0 | 0.0 | 0.00 | 0.03 | 0.00 | 94 | 1020.2 |
| 20260507061653 | -2 | 25 | 0.0 | 0.0 | 0.00 | 0.03 | 0.00 | 94 | 1020.1 |
| 20260507061154 | -2 | 25 | 0.0 | 0.0 | 0.00 | 0.03 | 0.00 | 94 | 1020.2 |
| 20260507060654 | -2 | 26 | 0.0 | 0.0 | 0.00 | 0.03 | 0.00 | 93 | 1020.1 |
| 20260507060154 | -2 | 25 | 0.0 | 0.0 | 0.00 | 0.03 | 0.00 | 93 | 1020.2 |
| 20260507055653 | -2 | 26 | 0.0 | 0.0 | 0.00 | 0.03 | 0.03 | 93 | 1020.2 |
| 20260507055153 | -2 | 25 | 0.0 | 0.0 | 0.00 | 0.03 | 0.03 | 93 | 1020.1 |
| 20260507054654 | -2 | 25 | 0.0 | 0.0 | 0.00 | 0.03 | 0.03 | 93 | 1020.1 |
| 20260507054153 | -1 | 26 | 0.0 | 0.0 | 0.00 | 0.03 | 0.03 | 93 | 1020.1 |
| 20260507053653 | -1 | 25 | 0.0 | 0.0 | 0.00 | 0.03 | 0.03 | 93 | 1020.1 |
| 20260507053154 | -1 | 25 | 0.0 | 0.0 | 0.00 | 0.03 | 0.03 | 93 | 1020.1 |
| 20260507052655 | -1 | 25 | 0.0 | 0.0 | 0.00 | 0.03 | 0.03 | 93 | 1020.1 |
| 20260507052153 | -1 | 25 | 0.0 | 0.0 | 0.00 | 0.03 | 0.03 | 93 | 1020.0 |
| 20260507051154 | -1 | 26 | 0.0 | 0.0 | 0.00 | 0.03 | 0.03 | 93 | 1020.0 |
| 20260507050654 | -1 | 26 | 0.0 | 0.0 | 0.00 | 0.03 | 0.03 | 93 | 1020.0 |
| 20260507050154 | -1 | 26 | 0.0 | 0.0 | 0.00 | 0.03 | 0.03 | 93 | 1019.9 |
| 20260507045654 | -1 | 25 | 0.0 | 0.0 | 0.00 | 0.03 | 0.03 | 93 | 1019.9 |
| 20260507045154 | -1 | 26 | 0.0 | 0.0 | 0.00 | 0.03 | 0.03 | 92 | 1020.0 |
| 20260507044654 | -1 | 129 | 0.0 | 0.0 | 0.00 | 0.03 | 0.03 | 92 | 1019.9 |
| 20260507044154 | -1 | 123 | 0.0 | 0.0 | 0.00 | 0.03 | 0.03 | 92 | 1019.9 |
| 20260507043653 | -1 | 129 | 0.0 | 0.0 | 0.00 | 0.03 | 0.03 | 92 | 1019.9 |
| 20260507043154 | -1 | 120 | 0.0 | 0.0 | 0.00 | 0.03 | 0.03 | 92 | 1020.0 |
| 20260507042654 | -1 | 159 | 0.0 | 0.0 | 0.00 | 0.03 | 0.03 | 92 | 1020.1 |
| 20260507042154 | -1 | 138 | 0.0 | 0.0 | 0.00 | 0.03 | 0.03 | 92 | 1020.0 |
| 20260507041654 | -1 | 125 | 0.0 | 0.0 | 0.00 | 0.03 | 0.03 | 92 | 1020.0 |
| 20260507041154 | -1 | 120 | 0.0 | 0.0 | 0.00 | 0.03 | 0.03 | 92 | 1020.1 |
| 20260507040653 | -1 | 133 | 0.0 | 3.2 | 0.00 | 0.03 | 0.03 | 92 | 1020.1 |
| 20260507040154 | -1 | 132 | 0.0 | 0.0 | 0.00 | 0.03 | 0.03 | 92 | 1020.0 |
| 20260507035654 | -1 | 155 | 0.0 | 4.8 | 0.00 | 0.03 | 0.03 | 92 | 1020.1 |
| 20260507035154 | 0 | 211 | 0.0 | 1.6 | 0.00 | 0.03 | 0.03 | 92 | 1020.0 |
| 20260507034653 | 0 | 131 | 0.0 | 3.2 | 0.00 | 0.03 | 0.03 | 91 | 1020.0 |
| 20260507034154 | 0 | 225 | 0.0 | 0.0 | 0.00 | 0.03 | 0.03 | 91 | 1020.0 |
| 20260507033154 | 0 | 139 | 0.0 | 0.0 | 0.00 | 0.03 | 0.03 | 89 | 1019.9 |
| 20260507032654 | 0 | 130 | 0.0 | 0.0 | 0.00 | 0.03 | 0.03 | 88 | 1019.9 |
| 20260507032154 | 0 | 129 | 0.0 | 0.0 | 0.00 | 0.03 | 0.03 | 87 | 1019.9 |
| 20260507031654 | 0 | 142 | 0.0 | 0.0 | 0.00 | 0.03 | 0.03 | 87 | 1019.8 |
| 20260507031154 | 0 | 135 | 0.0 | 0.0 | 0.00 | 0.03 | 0.03 | 86 | 1019.8 |
| 20260507030654 | 0 | 128 | 0.0 | 0.0 | 0.00 | 0.03 | 0.03 | 86 | 1019.7 |
| 20260507025654 | 0 | 150 | 0.0 | 0.0 | 0.00 | 0.03 | 0.03 | 84 | 1019.6 |
| 20260507025155 | 0 | 131 | 0.0 | 0.0 | 0.00 | 0.03 | 0.03 | 84 | 1019.6 |
| 20260507024154 | 0 | 147 | 0.0 | 0.0 | 0.00 | 0.03 | 0.03 | 83 | 1019.5 |
| 20260507023155 | 0 | 153 | 0.0 | 3.2 | 0.00 | 0.03 | 0.03 | 82 | 1019.5 |
| 20260507022654 | 0 | 179 | 0.0 | 0.0 | 0.00 | 0.03 | 0.03 | 82 | 1019.5 |
| 20260507022154 | 0 | 197 | 0.0 | 1.6 | 0.00 | 0.03 | 0.03 | 82 | 1019.5 |
| 20260507021654 | 0 | 156 | 0.0 | 4.8 | 0.00 | 0.03 | 0.03 | 81 | 1019.5 |
| 20260507021155 | 0 | 165 | 0.0 | 4.8 | 0.00 | 0.03 | 0.03 | 80 | 1019.4 |
| 20260507020154 | 1 | 190 | 1.6 | 8.0 | 0.00 | 0.03 | 0.03 | 77 | 1019.4 |
| 20260507015654 | 1 | 182 | 1.6 | 4.8 | 0.00 | 0.03 | 0.03 | 76 | 1019.3 |
| 20260507015154 | 1 | 205 | 1.6 | 9.7 | 0.00 | 0.03 | 0.03 | 76 | 1019.3 |
| 20260507014654 | 1 | 194 | 1.6 | 8.0 | 0.00 | 0.03 | 0.03 | 75 | 1019.3 |
| 20260507014154 | 1 | 183 | 3.2 | 14.5 | 0.00 | 0.03 | 0.03 | 74 | 1019.3 |
| 20260507013654 | 2 | 226 | 3.2 | 8.0 | 0.00 | 0.03 | 0.03 | 73 | 1019.3 |
| 20260507013155 | 2 | 192 | 1.6 | 4.8 | 0.00 | 0.03 | 0.03 | 72 | 1019.3 |
| 20260507012654 | 2 | 145 | 1.6 | 9.7 | 0.00 | 0.03 | 0.03 | 72 | 1019.3 |
| 20260507011154 | 2 | 145 | 3.2 | 11.3 | 0.00 | 0.03 | 0.03 | 71 | 1019.3 |
| 20260507010654 | 2 | 200 | 1.6 | 9.7 | 0.00 | 0.03 | 0.03 | 70 | 1019.3 |
| 20260507010154 | 3 | 180 | 3.2 | 12.9 | 0.00 | 0.03 | 0.03 | 68 | 1019.3 |
| 20260507005155 | 3 | 136 | 3.2 | 14.5 | 0.00 | 0.05 | 0.03 | 69 | 1019.1 |
| 20260507004654 | 3 | 158 | 3.2 | 9.7 | 0.00 | 0.05 | 0.03 | 68 | 1019.1 |
| 20260507004154 | 2 | 207 | 4.8 | 14.5 | 0.00 | 0.05 | 0.03 | 69 | 1019.1 |
| 20260507003654 | 2 | 186 | 3.2 | 9.7 | 0.00 | 0.05 | 0.03 | 69 | 1019.1 |
| 20260507003154 | 2 | 183 | 1.6 | 4.8 | 0.00 | 0.05 | 0.03 | 70 | 1019.0 |
| 20260507002654 | 2 | 182 | 3.2 | 9.7 | 0.00 | 0.05 | 0.03 | 69 | 1019.0 |
| 20260507002154 | 2 | 204 | 6.4 | 12.9 | 0.00 | 0.05 | 0.03 | 68 | 1019.0 |
| 20260507001654 | 2 | 165 | 1.6 | 8.0 | 0.00 | 0.05 | 0.03 | 68 | 1019.0 |
| 20260507001154 | 2 | 130 | 4.8 | 8.0 | 0.00 | 0.05 | 0.03 | 67 | 1019.0 |
| 20260507000654 | 2 | 166 | 4.8 | 9.7 | 0.00 | 0.05 | 0.03 | 67 | 1019.0 |
| 20260507000155 | 2 | 226 | 0.0 | 8.0 | 0.00 | 0.05 | 0.03 | 68 | 1019.0 |
| 20260506235654 | 2 | 203 | 3.2 | 9.7 | 0.00 | 0.05 | 0.03 | 67 | 1019.0 |
| 20260506235155 | 2 | 154 | 1.6 | 12.9 | 0.00 | 0.05 | 0.03 | 67 | 1018.9 |
| 20260506234654 | 3 | 177 | 3.2 | 9.7 | 0.00 | 0.08 | 0.03 | 67 | 1018.9 |
| 20260506234154 | 3 | 177 | 3.2 | 11.3 | 0.00 | 0.08 | 0.03 | 65 | 1018.9 |
| 20260506233154 | 3 | 216 | 3.2 | 9.7 | 0.00 | 0.08 | 0.03 | 65 | 1018.9 |
| 20260506232655 | 3 | 218 | 3.2 | 4.8 | 0.00 | 0.08 | 0.03 | 65 | 1019.0 |
| 20260506231654 | 2 | 60 | 0.0 | 0.0 | 0.00 | 0.10 | 0.03 | 67 | 1019.0 |
| 20260506231155 | 2 | 68 | 1.6 | 8.0 | 0.00 | 0.10 | 0.03 | 66 | 1019.0 |
| 20260506225654 | 2 | 86 | 3.2 | 8.0 | 0.00 | 0.10 | 0.03 | 66 | 1018.9 |
| 20260506225154 | 3 | 23 | 3.2 | 9.7 | 0.00 | 0.10 | 0.03 | 64 | 1018.8 |
| 20260506224654 | 3 | 0 | 0.0 | 1.6 | 0.00 | 0.10 | 0.03 | 63 | 1018.8 |
| 20260506224155 | 3 | 326 | 0.0 | 4.8 | 0.00 | 0.10 | 0.03 | 62 | 1018.8 |
| 20260506223154 | 2 | 297 | 0.0 | 4.8 | 0.03 | 0.13 | 0.03 | 63 | 1018.8 |
| 20260506222654 | 2 | 331 | 0.0 | 1.6 | 0.03 | 0.13 | 0.03 | 63 | 1018.9 |
| 20260506222154 | 2 | 221 | 0.0 | 4.8 | 0.03 | 0.13 | 0.03 | 64 | 1018.9 |
| 20260506221655 | 2 | 319 | 0.0 | 4.8 | 0.03 | 0.13 | 0.03 | 65 | 1018.9 |